Date String (YYYY-MM-DD hh:mm:ss) UTC,Instrument flags,absolute air pressure of the measurement (hPa),sample flow rate (lpm),inlet stack bypass flow (lpm),air temperature of the measurement (°C),ambient temperature measured by the external sensor (°C),aerosol sample conditioner tube jacket temperature (°C),OPC LED temperature (°C),internal box temperature (°C),relative humidity of the measurement (%),span deviation,mass concentration of particles derived from Lorenz-Mie calculation of OPC scattering (μg/m³),mass concentration of particles derived from Lorenz-Mie calculation of OPC scattering (μg/m³),mass concentration of particles derived from Lorenz-Mie calculation of OPC scattering (μg/m³)
DateTimeUTC,F1_M11,P_M11,Q1_M11,Q2_M11,T1_M11,T2_M11,T3_M11,T4_M11,T5_M11,U1_M11,ZSPAN_M11,X2_M11,X0_M11,X1_M11
2024-03-25 13:00:00,SystemResetWarning,0817.5,4.99,000.00,018.7,018.2,000.0,027.3,020.5,13.5,0000.0,0006.10,0008.88,0005.87
2024-03-25 13:01:00,SystemResetWarning,0817.5,5.01,000.00,018.7,018.1,000.0,027.3,020.4,13.5,0000.0,0006.08,0008.91,0005.87
2024-03-25 13:02:00,SystemResetWarning,0817.6,5.01,000.00,018.6,017.9,000.0,027.3,020.3,13.5,0000.0,0006.08,0008.90,0005.88
2024-03-25 13:03:00,SystemResetWarning,0817.6,5.00,000.00,018.6,017.8,000.0,027.3,020.2,13.6,0000.0,0006.09,0008.90,0005.88
2024-03-25 13:04:00,SystemResetWarning,0817.6,4.99,000.00,018.5,017.6,000.0,027.2,020.1,13.6,0000.0,0006.13,0008.85,0005.90
2024-03-25 13:05:00,SystemResetWarning,0817.6,4.99,000.00,018.4,017.5,000.0,027.2,020.0,13.7,0000.0,0006.11,0008.83,0005.88
2024-03-25 13:06:00,SystemResetWarning,0817.6,5.01,000.00,018.4,017.3,000.0,027.2,020.0,13.7,0000.0,0006.06,0008.76,0005.83
2024-03-25 13:07:00,SystemResetWarning,0817.6,5.01,000.00,018.3,017.2,000.0,027.2,020.0,13.8,0000.0,0006.04,0008.82,0005.80
2024-03-25 13:08:00,SystemResetWarning,0817.6,4.99,000.00,018.3,017.4,000.0,027.3,020.2,13.8,0000.0,0006.05,0008.78,0005.79
2024-03-25 13:09:00,SystemResetWarning,0817.7,5.00,000.00,018.5,018.4,000.0,027.4,020.7,13.6,0000.0,0006.09,0008.77,0005.81
2024-03-25 13:10:00,SystemResetWarning,0817.6,4.99,000.00,018.8,019.0,000.0,027.4,021.1,13.4,0000.0,0006.12,0008.81,0005.83
2024-03-25 13:11:00,SystemResetWarning,0817.6,4.99,000.00,018.8,018.8,000.0,027.3,020.9,13.4,0000.0,0006.12,0008.66,0005.84
2024-03-25 13:12:00,SystemResetWarning,0817.6,5.00,000.00,018.8,018.6,000.0,027.3,020.7,13.4,0000.0,0006.14,0008.47,0005.87
2024-03-25 13:13:00,SystemResetWarning,0817.6,5.00,000.00,018.7,018.3,000.0,027.3,020.5,13.4,0000.0,0006.15,0008.45,0005.88
2024-03-25 13:14:00,SystemResetWarning,0817.6,5.00,000.00,018.7,018.1,000.0,027.3,020.4,13.5,0000.0,0006.15,0009.15,0005.88
2024-03-25 13:15:00,SystemResetWarning,0817.6,5.01,000.00,018.6,017.8,000.0,027.3,020.2,13.5,0000.0,0006.11,0009.19,0005.89
2024-03-25 13:16:00,SystemResetWarning,0817.6,4.99,000.00,018.5,017.7,000.0,027.3,020.1,13.6,0000.0,0006.11,0009.17,0005.90
2024-03-25 13:17:00,SystemResetWarning,0817.6,4.99,000.00,018.5,017.5,000.0,027.2,020.1,13.6,0000.0,0006.13,0009.56,0005.91
2024-03-25 13:18:00,SystemResetWarning,0817.6,5.00,000.00,018.4,017.4,000.0,027.2,020.0,13.7,0000.0,0006.13,0009.70,0005.93
2024-03-25 13:19:00,SystemResetWarning,0817.6,5.00,000.00,018.4,017.3,000.0,027.2,020.0,13.7,0000.0,0006.12,0009.61,0005.94
2024-03-25 13:20:00,SystemResetWarning,0817.6,5.00,000.00,018.3,017.2,000.0,027.2,020.0,13.8,0000.0,0006.12,0009.57,0005.93
2024-03-25 13:21:00,SystemResetWarning,0817.7,5.01,000.00,018.4,017.6,000.0,027.3,020.3,13.7,0000.0,0006.15,0010.03,0005.95
2024-03-25 13:22:00,SystemResetWarning,0817.7,5.00,000.00,018.6,018.7,000.0,027.4,020.9,13.6,0000.0,0006.18,0010.72,0005.97
2024-03-25 13:23:00,SystemResetWarning,0817.8,4.99,000.00,018.8,019.1,000.0,027.4,021.1,13.4,0000.0,0006.19,0010.77,0005.98
2024-03-25 13:24:00,SystemResetWarning,0817.7,4.99,000.00,018.8,018.9,000.0,027.3,020.9,13.4,0000.0,0006.21,0011.16,0006.00
2024-03-25 13:25:00,SystemResetWarning,0817.7,5.01,000.00,018.8,018.6,000.0,027.3,020.8,13.4,0000.0,0006.21,0010.85,0006.02
2024-03-25 13:26:00,SystemResetWarning,0817.7,5.00,000.00,018.8,018.4,000.0,027.3,020.6,13.4,0000.0,0006.24,0010.52,0006.04
2024-03-25 13:27:00,SystemResetWarning,0817.7,5.00,000.00,018.7,018.2,000.0,027.3,020.5,13.5,0000.0,0006.26,0010.55,0006.05
2024-03-25 13:28:00,SystemResetWarning,0817.7,5.00,000.00,018.7,018.0,000.0,027.3,020.4,13.5,0000.0,0006.30,0010.50,0006.08
2024-03-25 13:29:00,SystemResetWarning,0817.7,5.01,000.00,018.6,017.9,000.0,027.3,020.3,13.6,0000.0,0006.33,0010.07,0006.10
2024-03-25 13:30:00,SystemResetWarning,0817.6,5.01,000.00,018.5,017.7,000.0,027.3,020.2,13.6,0000.0,0006.35,0010.10,0006.11
2024-03-25 13:31:00,SystemResetWarning,0817.7,5.00,000.00,018.5,017.6,000.0,027.2,020.1,13.7,0000.0,0006.36,0010.09,0006.14
2024-03-25 13:32:00,SystemResetWarning,0817.7,5.00,000.00,018.4,017.5,000.0,027.2,020.0,13.8,0000.0,0006.37,0010.02,0006.16
2024-03-25 13:33:00,SystemResetWarning,0817.7,4.99,000.00,018.4,017.4,000.0,027.2,020.0,13.8,0000.0,0006.38,0009.04,0006.16
2024-03-25 13:34:00,SystemResetWarning,0817.7,5.00,000.00,018.3,017.3,000.0,027.2,020.0,13.9,0000.0,0006.38,0008.99,0006.17
2024-03-25 13:35:00,SystemResetWarning,0817.8,5.02,000.00,018.4,017.8,000.0,027.3,020.4,13.8,0000.0,0006.38,0008.80,0006.15
2024-03-25 13:36:00,SystemResetWarning,0817.7,5.00,000.00,018.6,018.9,000.0,027.4,021.0,13.7,0000.0,0006.37,0008.46,0006.13
2024-03-25 13:37:00,SystemResetWarning,0817.8,5.00,000.00,018.8,019.2,000.0,027.4,021.2,13.6,0000.0,0006.35,0008.43,0006.11
2024-03-25 13:38:00,SystemResetWarning,0817.8,4.99,000.00,018.9,019.0,000.0,027.3,021.0,13.5,0000.0,0006.33,0008.40,0006.08
2024-03-25 13:39:00,SystemResetWarning,0817.8,4.99,000.00,018.8,018.8,000.0,027.3,020.8,13.6,0000.0,0006.30,0008.55,0006.07
2024-03-25 13:40:00,SystemResetWarning,0817.7,5.02,000.00,018.8,018.6,000.0,027.3,020.7,13.6,0000.0,0006.28,0008.53,0006.07
2024-03-25 13:41:00,SystemResetWarning,0817.8,5.00,000.00,018.8,018.4,000.0,027.3,020.6,13.7,0000.0,0006.30,0008.62,0006.07
2024-03-25 13:42:00,SystemResetWarning,0817.8,4.98,000.00,018.8,018.2,000.0,027.3,020.5,13.6,0000.0,0006.30,0008.69,0006.05
2024-03-25 13:43:00,SystemResetWarning,0817.8,5.02,000.00,018.7,018.1,000.0,027.3,020.5,13.6,0000.0,0006.28,0008.75,0006.03
2024-03-25 13:44:00,SystemResetWarning,0817.8,5.00,000.00,018.7,017.9,000.0,027.3,020.4,13.7,0000.0,0006.25,0008.73,0006.02
2024-03-25 13:45:00,SystemResetWarning,0817.8,4.98,000.00,018.6,017.8,000.0,027.3,020.3,13.8,0000.0,0006.26,0008.81,0006.02
2024-03-25 13:46:00,SystemResetWarning,0817.8,5.00,000.00,018.6,017.8,000.0,027.3,020.3,13.9,0000.0,0006.29,0008.89,0006.05
2024-03-25 13:47:00,SystemResetWarning,0817.8,5.02,000.00,018.6,017.7,000.0,027.3,020.3,13.9,0000.0,0006.30,0008.86,0006.08
2024-03-25 13:48:00,SystemResetWarning,0817.8,4.99,000.00,018.5,017.6,000.0,027.3,020.2,14.0,0000.0,0006.31,0008.85,0006.10
2024-03-25 13:49:00,SystemResetWarning,0817.8,4.99,000.00,018.5,017.6,000.0,027.2,020.2,14.1,0000.0,0006.33,0008.85,0006.12
2024-03-25 13:50:00,SystemResetWarning,0817.8,5.01,000.00,018.4,017.5,000.0,027.2,020.2,14.2,0000.0,0006.35,0008.74,0006.15
2024-03-25 13:51:00,SystemResetWarning,0817.8,5.01,000.00,018.4,017.5,000.0,027.2,020.1,14.3,0000.0,0006.37,0008.58,0006.17
2024-03-25 13:52:00,SystemResetWarning,0817.8,5.01,000.00,018.4,017.4,000.0,027.2,020.1,14.3,0000.0,0006.37,0008.55,0006.18
2024-03-25 13:53:00,SystemResetWarning,0817.9,5.00,000.00,018.4,017.5,000.0,027.2,020.1,14.4,0000.0,0006.34,0008.52,0006.19
2024-03-25 13:54:00,SystemResetWarning,0818.0,5.00,000.00,018.5,018.3,000.0,027.3,020.6,14.4,0000.0,0006.37,0008.65,0006.21
2024-03-25 13:55:00,SystemResetWarning,0818.0,5.00,000.00,018.8,019.1,000.0,027.4,021.2,14.2,0000.0,0006.40,0008.67,0006.23
2024-03-25 13:56:00,SystemResetWarning,0817.9,4.99,000.00,018.9,019.2,000.0,027.3,021.2,14.1,0000.0,0006.43,0009.37,0006.24
2024-03-25 13:57:00,SystemResetWarning,0818.0,4.99,000.00,018.9,018.9,000.0,027.3,021.0,14.2,0000.0,0006.41,0009.30,0006.24
2024-03-25 13:58:00,SystemResetWarning,0818.0,5.00,000.00,018.9,018.7,000.0,027.3,020.8,14.2,0000.0,0006.44,0009.34,0006.27
2024-03-25 13:59:00,SystemResetWarning,0818.0,5.01,000.00,018.8,018.5,000.0,027.3,020.7,14.2,0000.0,0006.46,0009.41,0006.28
